Location: *
(42.2100°N, 19.7900°E)
Time: 13:50:16
(UTC+00:00)

Daily predictions for brighter satellites

Satellite Brightness Start Highest point End
(mag) Time Altitude Azimuth Time Altitude Azimuth Time Altitude Azimuth
Meteor 2-16 Rocket 4.5 17:23:34 10° N 17:29:43 66° E 17:35:49 10° SSE
Meteor 2-21 Rocket 4.4 17:23:43 10° N 17:29:48 79° E 17:35:51 10° SSE
STARLINK-1117 4.4 17:26:35 10° NW 17:30:23 38° NNE 17:34:11 10° E
Cosmos 2278 Rocket 2.5 17:25:39 10° NNW 17:31:20 74° WSW 17:36:59 10° SSE
Meteor 2-5 Rocket 3.7 17:26:01 10° N 17:31:40 65° ENE 17:37:10 10° SSE
Cosmos 1892 Rocket 3.7 17:28:12 10° N 17:32:37 55° E 17:37:00 10° SSE
STARLINK-1192 3.7 17:29:06 10° SW 17:33:10 85° NW 17:37:17 10° NE
Cosmos 1805 3.2 17:29:21 10° S 17:33:14 74° E 17:37:09 10° NNE
ARGOS 4.0 17:29:01 10° SE 17:33:43 31° ENE 17:38:25 10° N
STARLINK-1078 4.3 17:31:02 10° NW 17:34:53 40° NNE 17:38:43 10° E
Cosmos 1048 Rocket 4.5 17:32:14 10° SSW 17:37:19 67° WNW 17:42:30 10° NNE
STARLINK-1244 3.7 17:34:01 10° WSW 17:38:06 79° NW 17:42:11 10° NE
STARLINK-1108 4.2 17:35:50 10° NW 17:39:43 43° NNE 17:43:33 10° ESE
Cosmos 494 Rocket 3.9 17:35:14 10° SSW 17:40:21 76° ESE 17:45:32 10° NNE
STARLINK-1138 3.8 17:38:40 10° WSW 17:42:44 73° NW 17:46:50 10° NE
Meteor 1-24 Rocket 3.7 17:37:44 10° N 17:43:11 59° ENE 17:48:27 10° SSE
STARLINK-1071 4.1 17:40:27 10° NW 17:44:23 46° NNE 17:48:02 12° ESE
Okean 1-7 Rocket 3.6 17:40:02 10° N 17:44:23 62° E 17:48:43 10° SSE
CZ-2C R/B 3.4 17:41:46 10° SE 17:46:28 40° ENE 17:50:59 10° N
STARLINK-1143 3.9 17:43:34 10° WSW 17:47:38 68° NW 17:51:43 10° NE
STARLINK-1110 4.0 17:44:57 10° NW 17:48:54 49° NNE 17:52:21 13° ESE
STARLINK-1124 4.0 17:46:00 10° NW 17:50:04 51° NNE 17:53:33 13° ESE
USA 186 2.6 17:47:14 10° SE 17:50:23 35° ENE 17:53:32 10° N
Cosmos 1331 Rocket 3.9 17:45:22 10° NNW 17:50:32 71° ENE 17:55:39 10° SSE
Cosmos 1544 Rocket 3.7 17:46:31 10° S 17:50:45 51° E 17:55:04 10° NNE
Cosmos 332 Rocket 4.2 17:46:34 10° NNW 17:51:28 70° WSW 17:56:20 10° S
USA 81 4.0 17:48:03 10° N 17:53:21 83° E 17:58:38 10° S
Cosmos 1470 3.5 17:51:13 10° SSE 17:54:39 31° E 17:58:07 10° NNE
Cosmos 1745 Rocket 4.1 17:48:43 10° N 17:55:04 87° W 18:01:17 10° S
STARLINK-1241 4.2 17:52:07 10° WSW 17:56:07 58° NNW 18:00:08 10° NE
CZ-4 R/B 3.9 17:54:29 10° SSW 17:57:37 23° W 18:00:45 10° NW
Cosmos 2369 Rocket 3.7 17:54:01 10° N 17:58:12 20° NE 18:01:25 13° E
STARLINK-1122 3.8 17:54:20 10° NW 17:58:21 57° NNE 18:01:25 16° ESE
STARLINK-1239 4.3 17:57:02 10° WSW 18:00:59 54° NNW 18:04:58 10° NE
Ariane Rocket 2.9 17:58:06 10° SSE 18:03:10 80° ENE 18:08:16 10° NNW
STARLINK-1126 3.7 17:59:15 10° NW 18:03:17 61° NNE 18:06:09 18° ESE
BREEZE-M DEB (TANK) 2.6 17:55:40 10° SW 18:03:38 76° SSE 18:06:13 13° ENE
SJ-6B 3.3 18:00:52 10° SE 18:04:42 44° ENE 18:08:38 10° N
SJ-11-01 4.3 18:00:48 10° SSE 18:05:29 86° WSW 18:10:14 10° NNW
STARLINK-1240 4.4 18:01:47 10° WSW 18:05:43 50° NNW 18:09:40 10° NE
Cosmos 1733 3.5 18:02:08 10° SSW 18:05:52 68° W 18:09:39 10° N
Cosmos 1726 4.1 18:08:31 13° ENE 18:08:31 13° ENE 18:09:28 10° NE
STARLINK-1082 3.6 18:03:46 10° NW 18:07:50 66° NE 18:10:30 20° ESE
Meteor 1-22 Rocket 4.2 18:02:52 10° SSW 18:08:10 79° W 18:13:29 10° N
Cosmos 1758 3.7 18:04:18 10° SSE 18:08:10 43° E 18:12:03 10° NNE
ARGOS Delta rocket 4.0 18:03:17 10° SSE 18:08:21 89° E 18:13:43 10° N
IRS-1A Rocket 4.3 18:03:32 10° SSE 18:09:09 84° ENE 18:14:56 10° NNW
Cosmos 1674 4.5 18:08:22 10° NNW 18:11:47 34° W 18:15:10 10° SSW
Cosmos 1110 Rocket 4.4 18:07:08 10° NNW 18:12:21 67° WSW 18:17:29 10° S
STARLINK-1100 3.6 18:08:37 10° NW 18:12:41 71° NE 18:15:11 22° ESE
CZ-2C R/B 4.1 18:08:18 10° NNE 18:12:49 41° E 18:17:13 10° S
Aureole 2 Rocket 4.4 18:11:32 10° NNE 18:13:32 14° ENE 18:13:43 14° ENE
STARLINK-1083 3.5 18:13:21 10° NW 18:17:26 77° NE 18:19:44 25° ESE
Cosmos 1943 4.3 18:19:43 21° ESE 18:19:53 21° E 18:23:59 10° NE
Cosmos 1943 Rocket 2.9 18:15:13 10° N 18:20:17 35° ENE 18:23:01 22° ESE
STARLINK-1125 3.5 18:17:55 10° NW 18:22:01 83° NE 18:24:08 27° ESE
ATLAS 2AS CENTAUR R/B 4.4 18:16:20 10° NNW 18:22:03 22° NNE 18:26:55 12° ENE
SL-14 R/B 3.4 18:18:59 10° N 18:23:03 80° W 18:27:03 10° S
STARLINK-1109 3.5 18:22:39 10° NW 18:26:46 89° ENE 18:28:42 30° SE
Cosmos 2315 Rocket 4.0 18:20:43 10° S 18:27:00 85° E 18:33:23 10° N
Resurs 1-3 4.0 18:28:09 27° ESE 18:29:59 42° ENE 18:34:08 10° N
USA 234 3.2 18:24:49 10° NE 18:31:24 81° SE 18:37:57 10° SW
STARLINK-1091 3.5 18:27:28 10° NW 18:31:34 84° SW 18:33:19 33° SE
Meteor 2-15 Rocket 4.3 18:26:52 10° S 18:32:53 68° E 18:38:55 10° NNE
H-2A R/B 2.4 18:28:01 10° S 18:33:20 67° WSW 18:38:32 10° NNW
STARLINK-1066 3.8 18:30:46 10° WNW 18:33:46 41° SW 18:34:49 30° S
STARLINK-1081 3.8 18:31:15 10° WNW 18:34:13 40° SW 18:35:12 30° S
Aureole 3 3.5 18:31:26 14° S 18:34:38 57° E 18:39:28 10° NNE
STARLINK-1070 3.8 18:31:42 10° WNW 18:34:40 40° SW 18:35:38 30° S
STARLINK-1069 3.9 18:32:08 10° WNW 18:35:07 40° SW 18:36:06 30° S
Cosmos 1626 2.8 18:31:52 10° NNW 18:35:29 55° W 18:39:07 10° S
STARLINK-1085 3.9 18:32:35 10° WNW 18:35:34 39° SW 18:36:32 30° S
STARLINK-1086 3.9 18:33:04 10° WNW 18:36:01 39° SW 18:36:56 30° S
STARLINK-1095 3.9 18:33:32 10° WNW 18:36:28 38° SW 18:37:22 30° S
SL-16 R/B 2.7 18:31:18 10° SW 18:36:54 63° WNW 18:42:33 10° NNE
STARLINK-1077 3.9 18:33:59 10° WNW 18:36:55 38° SW 18:37:48 30° S
STARLINK-1075 4.0 18:34:26 10° WNW 18:37:22 37° SW 18:38:14 30° S
STARLINK-1093 4.0 18:34:51 10° WNW 18:37:48 37° SW 18:38:42 30° S
SL-08 RB Rocket 3.6 18:34:24 16° SSE 18:37:59 85° ENE 18:42:35 10° NNW
STARLINK-1074 4.0 18:35:19 10° WNW 18:38:16 37° SW 18:39:08 30° S
STARLINK-1087 4.0 18:35:47 10° WNW 18:38:42 36° SW 18:39:31 30° S
STARLINK-1088 4.0 18:36:15 10° WNW 18:39:09 36° SW 18:39:58 30° S
STARLINK-1115 4.1 18:36:41 10° WNW 18:39:37 36° SW 18:40:27 30° S
Resurs 01 Rocket 2.2 18:38:55 34° E 18:39:45 38° ENE 18:43:49 10° N
DMSP B5D2-2 4.1 18:34:40 10° NNE 18:39:48 55° E 18:44:54 10° S
STARLINK-1076 4.1 18:37:08 10° WNW 18:40:04 35° SW 18:40:53 30° S
STARLINK-1092 4.1 18:37:35 10° WNW 18:40:30 35° SW 18:41:19 29° S
STARLINK-1080 4.1 18:38:04 10° WNW 18:40:57 34° SW 18:41:42 29° SSW
STARLINK-1090 4.1 18:38:32 10° WNW 18:41:24 34° SW 18:42:08 29° SSW
STARLINK-1072 3.7 18:37:48 10° WNW 18:41:49 68° SW 18:43:08 39° SSE
STARLINK-1089 4.1 18:38:58 10° WNW 18:41:50 34° SW 18:42:33 29° SSW
STARLINK-1107 4.1 18:39:27 10° WNW 18:42:18 33° SW 18:43:00 29° SSW
TSX-5 4.0 18:37:47 10° NNW 18:42:58 85° ENE 18:44:38 37° SSE
FREGAT/IRIS 4.4 18:42:06 11° SSW 18:44:17 28° W 18:46:43 10° NW
STARLINK-1096 3.8 18:42:10 10° WNW 18:46:10 63° SW 18:47:19 41° SSE
STARLINK-1144 4.5 18:43:08 10° NW 18:47:02 38° NNE 18:47:59 33° ENE
Cosmos 1953 2.1 18:47:34 33° S 18:49:13 69° E 18:53:11 10° NNE
Abrixas rocket 2.0 18:46:22 10° WSW 18:49:06 72° W 18:49:06 72° W
Cosmos 1302 Rocket 4.3 18:44:30 10° NNW 18:49:45 67° WSW 18:53:40 18° S
STARLINK-1079 3.9 18:47:14 10° WNW 18:51:12 57° SW 18:52:11 43° S
Cosmos 1992 Rocket 4.2 18:46:38 10° N 18:51:43 50° ENE 18:52:57 41° ESE
STARLINK-1103 4.3 18:48:05 10° NW 18:52:01 40° NNE 18:52:45 36° NE
STARLINK-1116 4.0 18:51:41 10° WNW 18:55:37 52° SW 18:56:26 43° S
STARLINK-1101 4.2 18:53:03 10° NW 18:57:01 43° NNE 18:57:32 41° NE
SL-24 R/B 4.2 18:53:52 10° N 18:58:22 73° WNW 19:02:20 10° SSW
Cosmos 1603 3.7 18:53:13 10° S 18:58:42 56° ESE 19:04:12 10° NNE
Meteor 1-16 Rocket 4.1 18:58:28 37° SSE 19:00:20 57° E 19:05:39 10° NNE
Cosmos 2251 Rocket 3.4 18:55:47 10° SSW 19:01:06 78° ESE 19:06:31 10° NNE
STARLINK-1102 4.1 18:58:00 10° NW 19:02:00 46° NNE 19:02:19 45° NE
ISS -2.3 18:59:57 10° NW 19:02:41 29° NNE 19:02:41 29° NNE
BREEZE-M DEB (TANK) 4.4 18:59:32 10° WNW 19:04:49 35° N 19:05:20 33° NNE
STARLINK-1094 4.3 19:01:00 10° WNW 19:04:50 43° SW 19:05:21 41° SSW
Cosmos 2074 Rocket 3.9 18:59:15 10° N 19:05:32 73° E 19:08:17 36° SSE
Cosmos 2084 Rocket 3.5 19:02:18 10° NNW 19:06:45 62° NE 19:06:58 61° ENE
STARLINK-1111 4.0 19:02:58 10° NW 19:07:00 49° NNE 19:07:06 49° NE
STARLINK-1117 4.4 19:05:53 10° WNW 19:09:40 39° SW 19:10:00 38° SSW
CZ-2C R/B 2.4 19:04:52 10° NNE 19:10:04 87° ESE 19:14:07 17° SSW
STARLINK-1073 4.0 19:07:56 10° NW 19:11:53 53° NNE 19:11:53 53° NNE
STARLINK-1121 4.0 19:12:53 10° NW 19:16:39 55° N 19:16:39 55° N
Cosmos 292 Rocket 3.6 19:13:14 10° NNW 19:18:03 86° WSW 19:18:32 72° S
Cosmos 1610 Rocket 4.4 19:13:40 10° N 19:19:50 61° E 19:20:40 55° ESE
Cosmos 1656 Rocket 4.3 19:15:21 10° N 19:20:40 39° ENE 19:20:40 39° ENE
STARLINK-1106 4.1 19:17:50 10° NW 19:21:25 55° N 19:21:25 55° N
MOS 1 Rocket 3.9 19:19:13 10° N 19:24:26 68° WNW 19:29:46 10° SSW
STARLINK-1112 4.2 19:22:50 10° NW 19:26:14 54° NNW 19:26:14 54° NNW
COSMOS 2455 4.5 19:27:12 10° N 19:31:31 20° NE 19:32:01 20° NE
STARLINK-1128 4.4 19:27:48 10° NW 19:31:01 51° NNW 19:31:01 51° NNW
Cosmos 1825 Rocket 4.0 19:34:01 10° NNW 19:37:53 58° WNW 19:37:53 58° WNW
Cosmos 2341 Rocket 4.5 19:32:20 10° N 19:37:48 45° ENE 19:37:48 45° ENE
NOSS 3-4 (A) 4.4 19:35:08 10° NNW 19:41:41 41° NE 19:42:42 39° ENE
NOSS 3-4 (C) 4.4 19:35:14 10° NNW 19:41:46 41° NE 19:42:48 39° ENE
Cosmos 1726 3.8 19:42:57 32° NW 19:42:57 32° NW 19:45:46 10° N
Cosmos 2369 Rocket 2.3 19:37:08 10° NNW 19:42:48 69° WSW 19:43:15 66° SW
Cosmos 2327 Rocket 4.5 19:37:15 10° N 19:43:33 83° W 19:44:38 64° S
NOSS 3-3 (A) 4.2 19:42:57 10° SW 19:48:43 65° NW 19:55:15 10° NNE
NOSS 3-3 (C) 4.2 19:43:03 10° SW 19:48:49 65° NW 19:55:22 10° NNE
Cosmos 2263 4.1 19:43:14 10° NNW 19:48:35 80° NW 19:48:35 80° NW
Terra 3.8 19:53:53 20° NNE 19:53:53 20° NNE 19:55:39 10° N
Meteor 2-17 Rocket 4.3 19:47:19 10° N 19:53:29 82° W 19:53:45 79° SW
Spot 2 Rocket 3.8 19:55:41 63° NW 19:55:41 63° NW 20:00:06 10° NNW
Cosmos 1295 Rocket 4.4 19:49:51 10° N 19:55:56 82° NE 19:55:56 82° NE
SPOT 1/Viking Rocket 4.2 20:00:50 49° N 20:00:50 49° N 20:04:39 10° N
Cosmos 1943 3.7 20:01:03 33° SW 20:03:27 57° WNW 20:09:03 10° NNE
Cosmos 1943 Rocket 3.3 19:59:02 10° NW 20:03:57 34° WSW 20:04:35 33° WSW
USA 234 4.4 20:08:06 10° NE 20:14:03 39° NNW 20:20:00 10° W
ATLAS 2AS CENTAUR R/B 2.9 20:07:06 10° NNW 20:14:22 64° NE 20:14:22 64° NE
Resurs 01 Rocket 3.8 20:16:28 20° W 20:16:28 20° W 20:19:37 10° NW
COSMOS 2455 4.4 21:12:13 10° NNW 21:15:09 31° NNW 21:15:09 31° NNW
CZ-4C R/B 4.2 22:34:21 10° NNW 22:38:44 34° N 22:38:44 34° N
SL-16 R/B 4.1 23:52:44 31° NNE 23:52:44 31° NNE 23:56:04 10° N
